Regional Weather Roundup
Issued by NWS

Home | Current Version | Previous Version | Text Only | Print | Product List | Glossary Off
Versions: 1 2 3 4 5 6 7 8 9 10 11 12 13 14 15 16 17 18 19 20 21 22 23 24 25 26 27 28 29 30 31 32 33 34 35 36 37 38 39 40 41 42 43 44 45 46 47 48 49 50

000
ASUS43 KLOT 051112
RWRIL

ILLINOIS REGIONAL WEATHER ROUNDUP
NATIONAL WEATHER SERVICE CHICAGO/ROMEOVILLE IL
600 AM CDT SUN JUL 05 2015

NOTE: "FAIR" INDICATES FEW OR NO CLOUDS BELOW 12,000 FEET WITH NO
SIGNIFICANT WEATHER AND/OR OBSTRUCTIONS TO VISIBILITY.

* THESE STATIONS ARE NOT UNDER NWS QUALITY CONTROL. THEY ALSO MAY NOT
  REPORT WEATHER SUCH AS PRECIPITATION OR FOG.

ILZ001-002-007-009-015-016-024-051200-
NORTHWEST ILLINOIS

CITY           SKY/WX    TMP DP  RH WIND       PRES   REMARKS
MOLINE         CLEAR     61  57  87 E3        30.05R FOG
STERLING*      CLEAR     57  55  94 SE3       30.07R
SAVANNA*       PTCLDY    59  57  95 CALM      30.06R FOG
$$

ILZ003-004-008-010-011-017-018-051200-
NORTH CENTRAL ILLINOIS

CITY           SKY/WX    TMP DP  RH WIND       PRES   REMARKS
ROCKFORD       CLEAR     62  58  86 CALM      30.08R
FREEPORT*      CLEAR     58  57  97 CALM      30.09R FOG
ROCHELLE*      CLEAR     58  56  94 CALM      30.08R FOG
DE KALB*       CLEAR     58  55  91 CALM      30.09R
PERU*          CLEAR     63  60  89 CALM      30.08R FOG
$$

ILZ005-006-012>014-019>023-051200-
NORTHEAST ILLINOIS

CITY           SKY/WX    TMP DP  RH WIND       PRES   REMARKS
CHICAGO-OHARE  CLEAR     62  58  86 CALM      30.07R FOG
CHICAGO-MIDWAY CLEAR     66  59  78 SW3       30.07R
AURORA         CLEAR     60  55  83 CALM      30.08R HAZE
LANSING*       FOG       59  57  92 CALM      30.08S VSB 3/4
JOLIET*        FOG       60  60  99 CALM      30.08R VSB<1/4
WAUKEGAN       CLEAR     61  57  87 SW3       30.06R FOG
DUPAGE AIRPORT CLEAR     59  58  96 CALM      30.08R FOG
KANKAKEE*      CLEAR     61  60  97 CALM      30.09R FOG
WHEELING       FOG       60  56  86 CALM      30.09R VSB 3/4
MORRIS*          N/A     61  60  96 CALM      30.05R FOG
ROMEOVILLE*    CLEAR     61  58  91 CALM      30.08R FOG
NORTHERLY ISL    N/A     69  57  65 SW6         N/A
$$

LMZ740>746-051200-
SOUTHERN LAKE MICHIGAN

STATION/POSITION SKY/WX   TEMP    WIND        PRES    VSBY  WAVE
                          AIR SEA DIR/SP/G                  HT/PER
                          (F)     (DEG/KT/KT) (MB)    (MI)  (FT/S)
HARRISON CRIB              69     180/ 11/ 12   N/A
BURNHAM HARBOR             69     230/  5/  6   N/A
CALUMET HARBOR             66     210/  3/  3   N/A
BURNS HARBOR               66     190/  7/  8 1019.0R
MICHIGAN CITY              68     150/  7/  9   N/A
MICHIGAN CITY 6N           65 64  200/  4/  6   N/A           0
ST. JOSEPH                 65 63                N/A           0
$$

ILZ025>027-034>036-040-047-049-050-058-095>099-051200-
WEST-CENTRAL ILLINOIS

CITY           SKY/WX    TMP DP  RH WIND       PRES   REMARKS
QUINCY         CLEAR     65  62  90 SE7       30.04R FOG
GALESBURG*     CLEAR     61  60  96 SE3       30.06S FOG
MACOMB*        MOCLDY    59  59 100 CALM      30.07R FOG
JACKSONVILLE*  CLEAR     62  60  94 E3        30.05S FOG
PITTSFIELD*    CLEAR     63  61  94 CALM      30.06R FOG
$$

ILZ028>032-037-038-041>044-048-051>054-059>061-051200-
CENTRAL ILLINOIS

CITY           SKY/WX    TMP DP  RH WIND       PRES   REMARKS
PONTIAC        CLEAR     59  59  99 SE3       30.09R FOG
BLOOMINGTON    CLEAR     62  60  93 S5        30.09R
DECATUR        CLEAR     58  56  93 NE3       30.08R FOG
PEORIA         CLEAR     64  60  87 CALM      30.07R FOG
LACON*         CLEAR     59  57  93 CALM      30.06R FOG
LINCOLN*       CLEAR     60  58  93 CALM      30.07S FOG
SPRINGFIELD    CLEAR     63  60  90 CALM      30.07R
TAYLORVILLE      N/A     57  57 100 CALM      30.07S FOG
$$

ILZ033-039-045-046-055>057-062-063-051200-
EAST-CENTRAL ILLINOIS

CITY           SKY/WX    TMP DP  RH WIND       PRES   REMARKS
CHAMPAIGN      CLEAR     58  56  93 CALM      30.08S
DANVILLE*      FOG       57  57  99 CALM      30.06S VSB 3/4
RANTOUL*       CLEAR     62  60  93 CALM      30.08S FOG
MATTOON        CLEAR     61  60  97 CALM      30.07S FOG
PARIS*         PTCLDY    61  61  99 CALM      30.09S FOG
$$

ILZ079-100>102-051200-
SOUTHWEST ILLINOIS

CITY           SKY/WX    TMP DP  RH WIND       PRES   REMARKS
ALTON            N/A     61  61 100 CALM      30.06R FOG
BELLEVILLE     CLEAR     64  64 100 CALM      30.05R FOG
CAHOKIA*       CLEAR     64  62  93 CALM      30.05R
SPARTA*        CLEAR     65  64  97 CALM      30.07R FOG
$$

ILZ064>066-069>071-074>076-080>082-084>086-088>090-092>094-051200-
SOUTH-CENTRAL ILLINOIS

CITY           SKY/WX    TMP DP  RH WIND       PRES   REMARKS
CARBONDALE     FOG       66  65  96 CALM      30.06R VSB 1/4
CAIRO*         FOG       68  68 100 CALM      30.06R VSB 1/4
EFFINGHAM*     CLEAR     62  60  92 CALM      30.09R FOG
MARION         FOG       66  64  94 CALM      30.07R VSB<1/4
MT. VERNON       N/A     63  57  82 CALM      30.08R VSB 3/4
CENTRALIA*     CLEAR     63  61  93 CALM      30.07R FOG
SALEM*           N/A     64  62  92 CALM      30.07S FOG
$$

ILZ067-068-072-073-078-083-087-091-051200-
SOUTHEAST ILLINOIS

CITY           SKY/WX    TMP DP  RH WIND       PRES   REMARKS
LAWRENCEVILLE  CLOUDY    68  66  93 CALM      30.08R FOG
FLORA*         CLOUDY    64  64  99 CALM      30.08R FOG
FAIRFIELD*       N/A     66  65  99 CALM      30.06S FOG
HARRISBURG*    MOCLDY    66  66 100 CALM      30.08R FOG
ROBINSON*      CLOUDY    65  64  97 CALM      30.09R FOG
CARMI*         CLOUDY    68  63  84 NW5       30.06R HAZE
$$

ABBREVIATIONS USED IN REMARKS
   TC - TEMPERATURE IN CELSIUS
  WCI - WIND CHILL INDEX
   HX - HEAT INDEX
  VSB - VISIBILITY
$$



USA.gov is the U.S. government's official web portal to all federal, state and local government web resources and services.